Regional Weather Roundup
Issued by NWS

Home | Current Version | Previous Version | Text Only | Print | Product List | Glossary On
Versions: 1 2 3 4 5 6 7 8 9 10 11 12 13 14 15 16 17 18 19 20 21 22 23 24 25 26 27 28 29 30 31 32 33 34 35 36 37 38 39 40 41 42 43 44 45 46 47 48 49 50
000
ASUS43 KMKX 291011
RWRWI

WISCONSIN REGIONAL WEATHER ROUNDUP
NATIONAL WEATHER SERVICE MILWAUKEE/SULLIVAN WI
500 AM CDT WED MAR 29 2017

NOTE: "FAIR" INDICATES FEW OR NO CLOUDS BELOW 12,000 FEET WITH NO
SIGNIFICANT WEATHER AND/OR OBSTRUCTIONS TO VISIBILITY.

WIZ001-002-006>008-014>016-023>028-291100-
NORTHWEST WISCONSIN

CITY           SKY/WX    TMP DP  RH WIND       PRES   REMARKS
SUPERIOR ARPT  MOCLDY    34  31  88 NE12G18   30.30S WCI  25
ASHLAND        CLEAR     29  27  92 NE7       30.30S WCI  22
HAYWARD        CLOUDY    29  26  89 NE3       30.25S
SIREN          CLOUDY    33  28  82 CALM      30.24R
CUMBERLAND     CLOUDY    32  27  80 E3        30.23R
RICE LAKE      CLOUDY    30  28  93 CALM      30.24S
CHETEK         CLOUDY    29  28  93 CALM      30.24R
LADYSMITH      CLOUDY    32  28  84 CALM      30.27R
EAU CLAIRE     CLOUDY    36  30  79 NE6       30.23R WCI  31
MENOMONIE      CLOUDY    36  31  85 CALM      30.23S
NEW RICHMOND   PTCLDY    38  29  68 CALM      30.22R
OSCEOLA        CLOUDY    35  30  82 CALM      30.24S
$$

WIZ003>005-009-010-017-018-291100-
NORTH CENTRAL WISCONSIN

CITY           SKY/WX    TMP DP  RH WIND       PRES   REMARKS
MANITOWISH WTR CLEAR     25  25 100 CALM      30.26S
ARBOR VITAE    CLEAR     32  29  90 CALM      30.25S
WOODRUFF       CLEAR     32  29  90 CALM      30.25S
RHINELANDER    CLEAR     28  26  92 NE3       30.27R
EAGLE RIVER    CLEAR     26  26 100 CALM      30.27S
LAND O LAKES   CLEAR     26  25  97 CALM      30.29S
PHILLIPS       CLOUDY    31  28  88 CALM      30.25R
TOMAHAWK       CLOUDY    24  22  93 CALM      30.27S
MEDFORD        MOCLDY    31  27  86 E5        30.25R WCI  26
MERRILL        CLOUDY    28  27  99 CALM      30.27S
$$

WIZ029-030-035-036-043>047-291100-
CENTRAL WISCONSIN

CITY           SKY/WX    TMP DP  RH WIND       PRES   REMARKS
WAUSAU         CLOUDY    31  28  89 CALM      30.25R
MOSINEE        CLOUDY    34  30  86 NE6       30.26S WCI  29
MARSHFIELD     CLOUDY    36  28  73 NE3       30.24R
STEVENS POINT  CLOUDY    27  26  95 NE3       30.26R
WAUPACA        CLOUDY    33  32  96 CALM      30.28R
WAUTOMA        CLEAR     29  27  92 CALM      30.26R
WISC RAPIDS    CLOUDY    33  30  88 CALM      30.26R
CAMP DOUGLAS   PTCLDY    29  28  97 CALM      30.24R
$$

WIZ011>013-019>022-031-037>040-048>050-291100-
NORTHEAST WISCONSIN

CITY           SKY/WX    TMP DP  RH WIND       PRES   REMARKS
ANTIGO         PTCLDY    31  28  89 E6        30.27S WCI  25
SHAWANO        CLOUDY    33  31  92 N6        30.29R WCI  28
OCONTO         CLEAR     32  29  89 NE6       30.29R WCI  26
STURGEON BAY   CLEAR     35  29  78 NE7       30.31R WCI  29
GREEN BAY      CLEAR     34  33  96 NE8       30.28R WCI  27
MANITOWOC      CLEAR     34  32  92 N5        30.28R WCI  30
APPLETON       PTCLDY    36  30  80 NE8       30.25S WCI  29
CLINTONVILLE   CLOUDY    32  30  93 CALM      30.28S
OSHKOSH        CLEAR     36  31  82 NE7       30.26R WCI  30
$$

WIZ032>034-041-042-053>061-291100-
SOUTHWEST WISCONSIN

CITY           SKY/WX    TMP DP  RH WIND       PRES   REMARKS
LA CROSSE      PTCLDY    41  34  76 E7        30.22R
SPARTA         PTCLDY    28  27  97 CALM      30.24S
VIROQUA        PTCLDY    37  32  84 CALM      30.20F
BOSCOBEL       CLEAR     33  32  96 CALM      30.22S FOG
PRAIRIE DU CHI CLEAR     39  35  85 E3        30.22R
PLATTEVILLE    CLOUDY    37  37 100 E6        30.21R WCI  33
$$

WIZ056-057-062-063-064-067-068-291100-
SOUTH CENTRAL WISCONSIN

CITY           SKY/WX    TMP DP  RH WIND       PRES   REMARKS
REEDSBURG      CLEAR     33  33 100 CALM      30.24R
BARABOO/DELLS  CLEAR     35  33  92 NE3       30.24R
LONE ROCK      CLEAR     34  31  88 E5        30.23R FOG     WCI  30
MINERAL POINT  FOG       37  37 100 CALM      30.21S VSB 3/4
MADISON        FOG       31  30  96 CALM      30.24R VSB 1/4
MIDDLETON      CLEAR     33  33 100 CALM      30.23R
WATERTOWN      FOG       32  32 100 NE3       30.24R VSB 1/4
MONROE         FOG       34  32  93 NE6       30.20S VSB 1/2 WCI  29
JANESVILLE     FOG       34  34 100 NE3       30.22R VSB 1/2
$$

WIZ051-052-058>065-066-070>072-291100-
SOUTHEAST WISCONSIN

CITY           SKY/WX    TMP DP  RH WIND       PRES   REMARKS
MILWAUKEE      FOG       32  30  92 E3        30.25S VSB 1/4
WAUKESHA       CLEAR     28  28 100 CALM      30.25S
MILWAUKEE/TIMM CLEAR     30  28  93 CALM      30.26R
RACINE         FOG       31  30  96 NE3       30.26S VSB 1/4
KENOSHA        FOG       31  30  96 NE6       30.24R VSB 1/4 WCI  25
FOND DU LAC    CLEAR     33  28  81 NE7       30.25R WCI  27
SHEBOYGAN      CLEAR     32  30  92 NE9       30.26R WCI  24
WEST BEND      CLEAR     30  30 100 CALM      30.25R
JUNEAU         CLEAR     31  31  98 CALM      30.25R FOG
$$

LSZ147-162-291100-
LAKE SUPERIOR

STATION/POSITION TIME  TEMP    WIND        PRES    WAVE
                       AIR SEA DIR/SP/G            HT/PER
                 (UTC) (F)     (DEG/KT/KT) (MB)    (FT/S)
DEVILS ISLAND    1000   35      60/ 20/ 22 1027.3S
PORT WING        0940   35      40/ 13/ 15 1026.1F
SAXON HARBOR     0940   26     190/  3/  3 1025.7R
$$

LMZ867-665-643>646-291100-
LAKE MICHIGAN

STATION/POSITION TIME  TEMP    WIND        PRES    WAVE
                       AIR SEA DIR/SP/G            HT/PER
                 (UTC) (F)     (DEG/KT/KT) (MB)    (FT/S)
CHAMBERS ISLAND  0940   32      20/  7/ 10 1025.7R
NORTHPORT PIER   0940   34     330/  4/  7 1026.1R
SISTER BAY       0806   37      40/  6/  9   N/A
KEWAUNEE LAKESHO 0948   36      20/  3/  6 1025.0R
SHEBOYGAN LAKESH 1000   36      10/ 12/ 13 1025.3R
PORT WASHINGTON  0930   35      10/  3/  5 1025.4R
MILWAUKEE LAKESH 0950   30      90/  2/  3   N/A
KENOSHA   LAKESH 1000   31      30/  6/  7 1024.4
$$

TC  - TEMPERATURE IN CELSIUS
VSB - VISIBILITY IN STATUTE MILES
WCI - WIND CHILL INDEX
HX  - HEAT INDEX




USA.gov is the U.S. government's official web portal to all federal, state and local government web resources and services.